This is the latest recevied weather packets stored in our database for station/object KF6YUA. If no packets are shown the sender has not sent any weather packets the latest 10 day(s).
| Time | Temp. | Humidity | Pressure | Rain* | Wind** | Luminosity | Snow |
|---|---|---|---|---|---|---|---|
| 1777408037 | 20° C | 62% | 1021.3 hPa | 0 mm | - | 566 W/m² | - |
| 1777407733 | 20° C | 64% | 1021.6 hPa | 0 mm | - | 497 W/m² | - |
| 1777407428 | 20.56° C | 63% | 1021.7 hPa | 0 mm | - | 598 W/m² | - |
| 1777407124 | 21.11° C | 62% | 1021.7 hPa | 0 mm | - | 505 W/m² | - |
| 1777406819 | 20.56° C | 64% | 1021.8 hPa | 0 mm | - | 587 W/m² | - |
| 1777406514 | 20.56° C | 65% | 1021.7 hPa | 0 mm | - | 436 W/m² | - |
| 1777406210 | 20° C | 65% | 1021.8 hPa | 0 mm | - | 528 W/m² | - |
| 1777405909 | 20° C | 65% | 1022 hPa | 0 mm | - | 623 W/m² | - |
| 1777405606 | 20° C | 59% | 1022.1 hPa | 0 mm | - | 663 W/m² | - |
| 1777405303 | 20° C | 62% | 1022.3 hPa | 0 mm | - | 711 W/m² | - |
| 1777405003 | 20° C | 58% | 1022.3 hPa | 0 mm | - | 676 W/m² | - |
| 1777404698 | 19.44° C | 60% | 1022.3 hPa | 0 mm | - | 829 W/m² | - |
| 1777404394 | 20° C | 62% | 1022.2 hPa | 0 mm | - | 767 W/m² | - |
| 1777404091 | 20° C | 58% | 1022.2 hPa | 0 mm | - | 755 W/m² | - |
| 1777403787 | 20° C | 61% | 1022.3 hPa | 0 mm | - | 674 W/m² | - |
| 1777403485 | 19.44° C | 60% | 1022.2 hPa | 0 mm | - | 754 W/m² | - |
| 1777403180 | 19.44° C | 58% | 1022.5 hPa | 0 mm | - | 648 W/m² | - |
| 1777402875 | 18.89° C | 61% | 1022 hPa | 0 mm | - | 508 W/m² | - |
| 1777402572 | 19.44° C | 63% | 1022.5 hPa | 0 mm | - | 525 W/m² | - |
| 1777402270 | 19.44° C | 62% | 1022.4 hPa | 0 mm | - | 528 W/m² | - |
| 1777401964 | 18.89° C | 62% | 1022.4 hPa | 0 mm | - | 526 W/m² | - |
| 1777401663 | 18.89° C | 62% | 1022.4 hPa | 0 mm | - | 535 W/m² | - |
| 1777401361 | 19.44° C | 62% | 1022.5 hPa | 0 mm | - | 641 W/m² | - |
| 1777401056 | 19.44° C | 59% | 1022.5 hPa | 0 mm | - | 657 W/m² | - |
| 1777400751 | 19.44° C | 60% | 1022.4 hPa | 0 mm | - | 592 W/m² | - |
* Rain latest hour (hover to see other rain measurements)
** Current wind speed in m/s (hover to see current wind gust speed)